Temp_Advection
nan nan nan nan nan nan nan nan nan nan nan nan nan nan nan nan nan nan nan nan nan nan
nan -1 -1 -1 -1 -1 -1 -4 -4 -2 -2 -1 -1 -1 -0 1 -0 -1 0 -0 -1 nan
nan -1 -1 -1 -1 -1 -1 -1 -4 -4 -2 -1 -1 -0 -0 -1 -1 0 0 0 -0 nan
nan -0 -0 -0 -1 -1 -1 -1 -2 -2 -1 -2 -1 -0 -0 -1 -1 -0 0 0 0 nan
nan -0 -0 -0 -0 -0 -0 -0 -1 -1 -0 0 -1 -1 -2 -2 -1 -0 0 0 1 nan
nan -0 0 0 1 1 0 -0 -0 -1 -0 -0 -0 -1 -1 -2 -0 1 -0 -0 0 nan
nan 0 1 1 2 1 1 1 0 -0 0 0 -0 -0 -1 -0 0 0 1 0 0 nan
nan 1 1 1 2 2 0 -1 -0 1 1 2 -0 -0 0 -0 0 1 1 1 1 nan
nan 1 0 2 1 -0 0 1 0 -1 -0 1 0 1 0 -0 0 1 1 1 1 nan
nan 0 0 1 -0 0 1 -1 -0 -0 -1 -1 3 3 -0 -0 0 -0 -1 -0 0 nan
nan -0 1 0 -0 -1 -0 -0 -0 -1 -0 0 1 1 1 1 -0 -2 -1 1 1 nan
nan -0 -0 -0 -1 -0 -0 -0 -1 -1 -0 -1 -0 1 0 -1 -2 -1 1 0 0 nan
nan -0 -1 -0 -0 -1 -1 -0 -0 -1 -1 -1 -1 -1 -1 -1 -1 -1 -1 -1 -1 nan
nan nan nan nan nan nan nan nan nan nan nan nan nan nan nan nan nan nan nan nan nan nan
Wind_Speed
26 26 27 29 30 34 37 39 35 36 38 39 41 41 36 34 36 46 50 49 44 47
24 23 24 25 25 27 29 31 31 32 35 37 37 40 43 38 33 37 40 42 37 31
23 21 20 22 23 24 24 25 30 31 32 34 36 37 38 40 37 37 36 35 32 32
22 18 15 17 15 17 19 19 24 22 23 28 31 32 33 37 34 34 30 35 34 38
25 19 16 14 12 9 9 9 11 16 19 23 29 32 31 34 30 33 31 31 34 37
33 27 25 23 21 18 14 12 7 7 12 16 21 22 26 28 31 26 25 28 32 40
37 35 31 32 34 32 32 30 26 21 15 7 2 9 18 21 21 19 25 23 30 29
37 39 39 38 36 40 37 38 39 38 34 26 8 9 2 8 15 13 14 21 23 25
37 39 42 44 44 44 44 43 43 46 47 46 43 32 20 17 13 9 10 11 12 13
34 35 39 39 41 43 45 44 46 46 46 47 45 40 40 38 37 38 33 24 20 15
34 36 38 38 39 39 39 40 42 44 44 44 43 40 40 38 38 37 36 37 34 31
32 34 36 38 38 38 39 40 41 41 42 41 42 38 36 35 34 36 39 38 36 33
33 33 35 35 36 36 37 39 38 39 40 40 40 38 36 34 33 34 32 34 33 35
32 34 35 34 34 34 36 36 37 38 38 38 40 37 37 35 34 33 32 32 32 29
Wind_Direction
319 312 304 299 297 292 286 281 273 264 261 255 247 248 256 255 253 254 255 258 239 212
325 317 309 303 298 296 295 291 278 267 263 261 256 248 250 255 254 254 257 258 260 243
335 323 312 304 294 290 295 292 287 271 265 265 265 260 251 250 253 253 256 259 256 237
359 349 329 323 314 296 296 290 293 285 275 270 265 265 257 248 247 251 258 253 249 248
21 18 16 15 2 337 331 321 298 290 274 268 269 260 257 250 243 245 252 253 243 249
39 40 47 51 54 55 46 33 9 305 279 265 262 255 256 246 241 247 248 252 250 252
52 50 56 60 63 65 66 65 61 61 65 68 228 240 243 247 241 238 238 238 241 237
62 64 63 66 69 69 71 71 70 69 69 69 51 51 67 263 247 225 225 223 231 227
59 64 67 66 68 73 73 72 72 71 69 70 72 74 72 74 84 123 126 143 171 192
56 60 62 64 65 65 67 70 68 69 67 65 71 75 74 75 80 79 79 76 83 81
58 60 63 63 62 63 61 63 66 65 64 65 63 65 71 73 72 72 78 74 73 75
59 60 61 63 63 62 63 62 60 62 61 58 56 56 58 61 64 65 65 63 66 66
61 63 63 62 63 64 63 62 61 60 60 60 56 56 56 55 57 55 55 57 56 52
59 59 61 62 62 62 63 64 61 60 58 57 53 49 49 49 50 50 53 53 50 48
Height
1414 1409 1404 1400 1397 1393 1390 1389 1393 1396 1398 1403 1409 1412 1415 1417 1420 1422 1424 1424 1419 1410
1409 1405 1400 1395 1392 1389 1386 1384 1384 1387 1388 1391 1396 1401 1406 1407 1411 1414 1415 1416 1422 1417
1406 1400 1395 1391 1387 1384 1382 1380 1378 1379 1382 1383 1385 1390 1395 1397 1401 1405 1407 1408 1411 1414
1404 1397 1392 1387 1383 1380 1378 1376 1374 1372 1373 1375 1376 1380 1383 1387 1393 1396 1398 1402 1406 1409
1406 1398 1391 1386 1382 1378 1375 1372 1369 1368 1368 1368 1369 1370 1373 1378 1384 1388 1393 1398 1401 1405
1408 1401 1394 1388 1383 1379 1375 1372 1369 1367 1366 1365 1366 1366 1368 1371 1377 1382 1385 1391 1396 1399
1412 1407 1400 1394 1387 1382 1378 1373 1371 1369 1367 1365 1364 1362 1364 1367 1369 1372 1375 1380 1383 1385
1418 1412 1407 1400 1393 1389 1386 1383 1380 1375 1370 1367 1363 1362 1361 1362 1365 1368 1371 1374 1377 1378
1428 1420 1414 1409 1405 1400 1397 1394 1388 1380 1377 1373 1370 1368 1365 1366 1366 1367 1369 1370 1373 1372
1436 1430 1424 1420 1415 1411 1405 1402 1398 1392 1387 1382 1380 1376 1375 1375 1374 1374 1373 1376 1372 1371
1444 1439 1433 1428 1423 1418 1415 1411 1406 1403 1398 1395 1391 1387 1382 1380 1378 1379 1381 1375 1376 1377
1452 1447 1441 1435 1432 1428 1424 1419 1415 1411 1407 1403 1400 1397 1393 1388 1387 1388 1380 1378 1378 1379
1459 1454 1448 1445 1441 1438 1432 1428 1424 1419 1415 1413 1408 1406 1404 1401 1396 1393 1393 1385 1383 1378
1464 1460 1456 1453 1449 1444 1440 1436 1431 1427 1424 1420 1418 1415 1410 1409 1406 1403 1399 1395 1392 1394